Location: Oakhurst
(33.6448°N, 111.9543°W)
Time: 06:56:59
(UTC+00:00)

DUCHIFAT 1 - Pass Details

Date: 07 August 2021
Orbit: 585 x 602 km, 98.0° (Epoch: 23 September)

Event Time Altitude Azimuth Distance (km) Brightness Sun altitude
Rises 09:56:22 0° 360° (N) 2,850 ? -29.6°
Reaches altitude 10° 09:58:43 10° 349° (N) 1,945 ? -29.3°
Enters shadow 10:00:11 19° 336° (NNW) 1,457 ? -29.1°
